Home > Weather > Gaziantep > Past weeks

Flag for Turkey Weather for the Past 2 Weeks in Gaziantep, Turkey

Now
32 °F

Passing clouds.


Feels Like: 32 °F
Forecast: 29 / 48 °F
Wind: 1 mph from North

Location: Gaziantep Airport

Current Time: Feb 11, 2016 at 12:25:25 AM

Latest Report: Feb 10, 2016 at 11:50 PM


Visibility: N/A

Pressure: 30.12 "Hg (27.06 "Hg at 856m altitude)

Humidity: 93%

Dew point: 30 °F

Location of GaziantepLocation

Historic Weather in Gaziantep — Graph

°F

Gaziantep Temperature Yesterday

Maximum temperature yesterday: 50 °F (at 2:20 PM)
Minimum temperature yesterday: 28 °F (at 4:50 AM)
Average temperature yesterday: 41 °F

High & Low Weather Summary for the Past Weeks

 TemperatureHumidityPressure
High57 °F (Feb 3, 2:50 PM)100% (Feb 1, 6:20 AM)30.39 "Hg (Feb 1, 6:20 AM)
Low16 °F (Jan 28, 3:50 AM)15% (Feb 3, 2:50 PM)29.74 "Hg (Feb 7, 1:50 AM)
Average40 °F62%30.18 "Hg
* Reported Jan 26 10:20 PM — Feb 10 10:50 PM, Gaziantep, Weather by CustomWeather, © 2016

Note: Actual official high and low records may vary slightly from our data, if they occured in-between our weather recording intervals... More about our weather records

Advertising

Gaziantep Weather History for the Previous 24 Hours

 ConditionsComfort  
Time TempWeatherWind HumidityBarometerVisibility
10:50 PM
Wed, Feb 10
32 °FPassing clouds.No wind93%30.12 "HgN/A
10:20 PM36 °FPassing clouds.No wind81%30.12 "HgN/A
9:50 PM36 °FPassing clouds.No wind87%30.12 "HgN/A
9:20 PM36 °FPartly cloudy.2 mph87%30.12 "HgN/A
8:50 PM39 °FPartly cloudy.No wind81%30.12 "HgN/A
8:20 PM41 °FPartly cloudy.No wind76%30.15 "HgN/A
7:50 PM41 °FPartly cloudy.No wind76%30.15 "HgN/A
7:20 PM41 °FPartly cloudy.No wind76%30.12 "HgN/A
6:50 PM43 °FPartly cloudy.1 mph71%30.12 "HgN/A
6:20 PM43 °FPartly cloudy.No wind71%30.12 "HgN/A
5:50 PM45 °FPartly cloudy.No wind66%30.12 "HgN/A
5:20 PM45 °FPassing clouds.No wind66%30.12 "HgN/A
4:50 PM46 °FPartly sunny.2 mph62%30.12 "HgN/A
4:20 PM46 °FPartly sunny.5 mph62%30.12 "HgN/A
3:50 PM48 °FBroken clouds.5 mph54%30.12 "HgN/A
3:20 PM50 °FBroken clouds.7 mph50%30.12 "HgN/A
2:50 PM50 °FBroken clouds.No wind47%30.12 "HgN/A
2:20 PM50 °FBroken clouds.2 mph43%30.12 "HgN/A
1:50 PM48 °FBroken clouds.3 mph54%30.12 "HgN/A
1:20 PM48 °FBroken clouds.6 mph50%30.12 "HgN/A
12:50 PM48 °FBroken clouds.7 mph50%30.12 "HgN/A
12:20 PM48 °FBroken clouds.7 mph58%30.12 "HgN/A
11:50 AM48 °FBroken clouds.10 mph58%30.15 "HgN/A
11:20 AM48 °FBroken clouds.8 mph62%30.15 "HgN/A
10:50 AM48 °FBroken clouds.7 mph62%30.18 "HgN/A
10:20 AM46 °FBroken clouds.5 mph66%30.18 "HgN/A
9:50 AM45 °FBroken clouds.6 mph71%30.18 "HgN/A
9:20 AM45 °FBroken clouds.5 mph66%30.18 "HgN/A
8:50 AM43 °FBroken clouds.6 mph71%30.21 "HgN/A
8:20 AM41 °FBroken clouds.5 mph76%30.21 "HgN/A
7:50 AM37 °FBroken clouds.1 mph81%30.21 "HgN/A
7:20 AM36 °FBroken clouds.1 mph87%30.21 "HgN/A
6:50 AM34 °FBroken clouds.2 mph87%30.18 "HgN/A
6:20 AM34 °FPartly cloudy.1 mph93%30.18 "HgN/A
5:50 AM32 °FPassing clouds.1 mph93%30.18 "HgN/A
5:20 AM30 °FClear.No wind86%30.18 "Hg10 mi
4:50 AM28 °FClear.No wind93%30.18 "Hg10 mi
4:20 AM34 °FClear.2 mph75%30.18 "Hg10 mi
3:50 AM36 °FClear.No wind81%30.18 "Hg10 mi
3:20 AM34 °FClear.No wind87%30.18 "Hg10 mi
2:20 AM34 °FClear.2 mph81%30.18 "Hg10 mi
1:50 AM36 °FPassing clouds.3 mph81%30.21 "HgN/A
1:20 AM34 °FClear.2 mph81%30.21 "Hg10 mi
12:50 AM34 °FClear.1 mph81%30.21 "Hg10 mi
12:20 AM34 °FClear.No wind81%30.21 "Hg10 mi
Weather by CustomWeather, © 2016

See weather overviewHow to use our weather pages